Key West NAF, FL

7:07 PM EDT on May 29, 2017 (GMT -0400)
Key West Naval Air Station

Weather History for KNQX - June, 2013

Change the Weather History Date:

Saturday, June 22, 2013

  Actual Average Record
Temperature  
Mean Temperature 84 °F -  
Max Temperature 89 °F 88 °F 92 °F (1967)
Min Temperature 80 °F 79 °F 71 °F (2000)
Cooling Degree Days 20    
Growing Degree Days 34 (Base 50)    
Moisture  
Dew Point 73 °F    
Average Humidity 70    
Maximum Humidity 79    
Minimum Humidity 59    
Precipitation  
Precipitation 0.00 in - - ()
Sea Level Pressure  
Sea Level Pressure 30.06 in    
Wind  
Wind Speed 9 mph (East)    
Max Wind Speed 12 mph    
Max Gust Speed -    
Visibility 10 miles    
Events      
Averages and records for this station are not official NWS values.
T = Trace of Precipitation, MM = Missing Value Source: NWS Daily Summary

Daily Weather History Graph

Daily Weather History Graph

Search for Another Location

Airport or City:

Trip Planner

Search our weather history database for the weather conditions in past years. The results will help you decide how hot, cold, wet, or windy it might be!

Date:

Astronomy

Jun. 22, 2013 Rise Set
Actual Time 6:38 AM EDT 8:18 PM EDT
Civil Twilight 6:13 AM EDT 8:44 PM EDT
Nautical Twilight 5:42 AM EDT 9:15 PM EDT
Astronomical Twilight 5:10 AM EDT 9:47 PM EDT
Moon 7:38 PM EDT (6/22) 5:44 AM EDT (6/22)
Length of Visible Light 14h 31m
Length of Day
13h 39m
Waxing Gibbous, 99% of the Moon is Illuminated
Jun 22
Waxing Gibbous
Jun 23
Full
Jun 30
Last Quarter
Jul 8
New
Jul 15
First Quarter

Hourly Weather History & Observations

Time (EDT) Temp. Heat Index Dew Point Humidity Pressure Visibility Wind Dir Wind Speed Gust Speed Precip Events Conditions
12:53 AM 82.0 °F 86.7 °F 72.0 °F 71% 30.07 in 10.0 mi East 10.4 mph - N/A   Partly Cloudy
1:53 AM 82.0 °F 86.7 °F 72.0 °F 71% 30.05 in 10.0 mi East 11.5 mph - N/A   Partly Cloudy
2:53 AM 81.0 °F 84.9 °F 71.1 °F 72% 30.04 in 10.0 mi East 10.4 mph - N/A   Partly Cloudy
3:53 AM 81.0 °F 84.9 °F 71.1 °F 72% 30.03 in 10.0 mi East 10.4 mph - N/A   Partly Cloudy
4:53 AM 81.0 °F 85.2 °F 72.0 °F 74% 30.04 in 10.0 mi East 6.9 mph - N/A   Partly Cloudy
5:53 AM 81.0 °F 85.2 °F 72.0 °F 74% 30.04 in 10.0 mi ESE 5.8 mph - N/A   Scattered Clouds
6:53 AM 80.1 °F 84.2 °F 73.0 °F 79% 30.04 in 10.0 mi East 5.8 mph - N/A   Mostly Cloudy
7:53 AM 81.0 °F 85.2 °F 72.0 °F 74% 30.05 in 10.0 mi East 5.8 mph - N/A   Scattered Clouds
8:53 AM 82.9 °F 89.4 °F 73.9 °F 74% 30.07 in 10.0 mi East 8.1 mph - N/A   Scattered Clouds
9:53 AM 86.0 °F 93.8 °F 73.9 °F 67% 30.07 in 10.0 mi East 8.1 mph - N/A   Scattered Clouds
10:53 AM 87.1 °F 95.4 °F 73.9 °F 65% 30.08 in 10.0 mi East 8.1 mph - N/A   Scattered Clouds
11:53 AM 88.0 °F 96.5 °F 73.9 °F 63% 30.09 in 10.0 mi East 6.9 mph - N/A   Scattered Clouds
12:53 PM 88.0 °F 96.5 °F 73.9 °F 63% 30.09 in 10.0 mi East 8.1 mph - N/A   Scattered Clouds
1:53 PM 88.0 °F 95.6 °F 73.0 °F 61% 30.07 in 10.0 mi ESE 8.1 mph - N/A   Scattered Clouds
2:53 PM 89.1 °F 97.0 °F 73.0 °F 59% 30.06 in 10.0 mi ESE 10.4 mph - N/A   Scattered Clouds
3:53 PM 88.0 °F 96.5 °F 73.9 °F 63% 30.05 in 10.0 mi East 10.4 mph - N/A   Scattered Clouds
4:53 PM 87.1 °F 96.3 °F 75.0 °F 67% 30.04 in 10.0 mi ESE 9.2 mph - N/A   Scattered Clouds
5:53 PM 84.9 °F 93.3 °F 75.0 °F 72% 30.04 in 10.0 mi ESE 9.2 mph - N/A   Scattered Clouds
6:53 PM 84.0 °F 91.2 °F 73.9 °F 72% 30.03 in 10.0 mi ESE 8.1 mph - N/A   Scattered Clouds
7:53 PM 82.9 °F 88.8 °F 73.0 °F 72% 30.04 in 10.0 mi ESE 8.1 mph - N/A   Scattered Clouds
8:53 PM 82.9 °F 89.4 °F 73.9 °F 74% 30.05 in 10.0 mi East 9.2 mph - N/A   Scattered Clouds
9:53 PM 82.9 °F 89.4 °F 73.9 °F 74% 30.06 in 10.0 mi ESE 11.5 mph - N/A   Scattered Clouds
10:53 PM 82.9 °F 89.4 °F 73.9 °F 74% 30.08 in 10.0 mi ESE 11.5 mph - N/A   Clear
11:53 PM 82.9 °F 90.2 °F 75.0 °F 77% 30.07 in 9.0 mi East 9.2 mph - N/A   Partly Cloudy